Wind_Speed
26 24 22 21 21 20 17 17 17 17 17 16 17 18 18 17 16 15 16 16 16 16 17 18 18 18 16 14 14 13 12 12 11 11 11 13 16 15 15 15 13 10 6 5 7 9 8 11 12 10 10 10 10 9 9 8 8 7 6 5 4 3 4
25 23 21 20 20 19 18 17 18 18 18 18 17 18 18 18 17 16 17 17 17 17 17 18 19 17 15 15 15 14 12 12 12 11 11 13 14 13 14 15 14 13 10 7 8 11 10 10 14 14 14 12 11 10 10 10 9 8 7 5 4 4 4
25 24 22 20 18 19 19 18 18 19 20 19 18 19 18 18 18 17 17 17 18 18 18 19 19 17 15 15 14 13 12 12 12 12 12 12 14 13 13 14 14 13 11 10 11 14 12 11 14 15 16 16 14 12 11 10 9 9 7 5 4 5 4
25 24 22 20 18 18 19 19 18 19 20 19 18 19 18 18 18 17 17 18 19 19 18 18 18 17 16 14 13 13 13 13 12 12 12 13 14 14 14 13 12 12 11 11 12 12 13 13 13 14 17 16 14 12 11 10 9 8 7 6 6 5 3
26 25 22 19 17 17 18 19 19 20 20 19 18 19 19 19 19 18 17 18 19 19 17 17 16 16 16 16 15 15 15 14 14 13 13 14 14 14 15 14 12 12 11 12 12 11 11 11 12 13 16 16 13 11 11 11 11 9 8 8 6 5 4
26 26 22 18 16 17 18 20 21 21 21 19 19 20 20 20 20 19 19 19 19 19 17 16 16 16 17 17 16 17 16 16 15 15 14 14 13 14 14 14 13 12 11 11 12 11 10 10 11 13 16 15 13 13 13 12 12 11 10 8 6 5 5
25 26 22 17 16 17 18 20 22 21 21 20 19 20 20 20 20 20 19 18 18 18 17 17 16 16 17 16 16 16 16 16 15 15 14 14 13 13 14 14 13 12 11 12 13 11 10 11 11 13 16 16 14 14 13 13 13 12 11 10 8 7 6
24 24 21 17 16 18 18 20 22 22 21 21 20 20 20 19 19 19 18 17 17 17 17 17 17 17 17 16 16 16 15 15 15 15 14 14 14 13 13 13 13 13 12 12 13 11 10 10 9 12 17 16 15 15 14 13 13 13 10 9 9 8 8
23 22 20 17 17 18 18 20 22 22 22 22 21 21 19 17 17 18 18 17 17 17 17 17 17 17 17 16 16 16 15 16 16 15 15 15 14 13 12 13 13 13 12 13 13 11 10 10 9 11 15 15 13 14 16 15 14 14 11 7 7 8 8
23 21 20 18 18 18 19 20 22 22 23 23 22 20 18 16 17 18 18 18 17 17 17 17 17 16 16 16 16 16 16 16 16 16 16 15 15 14 13 13 13 13 13 13 13 11 11 11 9 10 14 16 12 9 13 18 17 14 11 7 7 7 7
23 23 21 20 19 19 20 22 23 24 25 23 20 18 16 16 17 19 19 19 18 17 16 17 16 16 16 16 16 16 16 16 17 17 17 16 16 15 14 14 14 14 14 14 12 12 12 11 10 11 13 16 15 9 6 11 16 13 10 8 8 7 4
22 24 22 21 21 21 22 23 24 26 25 22 19 17 17 17 18 18 18 18 18 18 17 17 16 16 16 16 16 16 16 16 17 17 17 16 15 15 15 14 15 14 14 14 13 13 13 12 10 12 13 15 16 10 3 3 10 10 9 8 7 6 3
20 23 21 21 22 22 23 24 26 26 24 22 20 18 17 18 18 17 18 18 18 18 18 18 17 16 16 16 15 15 16 17 17 17 16 15 15 15 15 15 14 14 14 14 14 13 12 12 11 12 13 14 16 12 3 3 6 6 8 8 6 4 3
18 20 20 20 22 22 23 25 27 25 23 23 22 19 18 19 18 18 18 18 18 19 19 19 18 17 16 16 16 16 16 17 16 16 15 15 15 15 15 15 14 14 15 15 15 13 12 13 12 11 12 14 16 12 6 4 4 4 7 8 7 7 6
17 19 19 21 23 23 24 26 27 25 24 23 21 18 18 20 19 19 19 18 18 18 19 19 19 18 17 17 16 16 17 17 16 15 15 15 15 16 15 14 14 14 16 16 15 15 14 14 14 12 12 14 15 12 9 7 6 6 7 7 7 7 7
17 19 20 23 25 25 26 28 26 24 23 22 20 19 20 21 20 20 19 18 18 18 19 19 19 18 18 17 17 17 17 16 15 15 15 14 15 16 15 15 15 15 16 17 17 16 16 16 15 14 13 13 13 13 12 10 10 10 10 9 7 6 6
17 20 22 26 27 27 27 27 25 23 23 21 20 20 21 21 20 20 19 18 18 19 19 19 19 19 19 17 17 16 15 15 15 13 13 13 14 15 16 16 16 15 16 18 17 16 16 16 16 15 14 14 14 14 14 14 15 15 14 13 10 7 6
18 21 23 26 28 28 27 27 26 24 23 23 22 21 21 21 20 20 19 18 19 20 19 18 18 18 18 17 16 16 14 14 12 10 10 11 12 14 15 16 16 16 17 17 16 15 15 15 16 15 14 14 14 14 15 18 19 19 17 15 12 9 7
19 21 23 26 28 29 28 27 27 25 25 25 23 21 22 22 22 21 18 18 20 20 19 18 18 17 17 17 16 15 14 12 10 8 7 9 11 13 15 17 18 17 16 16 15 13 12 12 14 14 14 13 12 12 14 16 18 19 17 15 12 9 8
20 21 23 26 29 30 29 28 26 25 26 26 24 22 23 23 23 20 19 20 22 20 20 20 18 17 17 16 15 14 14 12 9 7 7 9 11 13 16 19 19 18 17 15 13 11 10 10 12 13 12 12 11 10 10 10 11 14 16 15 11 8 7
21 21 22 26 30 31 30 29 27 27 29 29 25 23 24 24 23 21 22 24 24 22 21 21 19 17 16 15 14 14 15 12 10 8 8 9 10 11 14 16 16 16 16 14 11 10 9 10 12 12 12 11 11 9 8 8 10 13 14 14 11 8 7
21 22 23 28 32 32 31 30 28 29 32 31 27 24 25 24 22 22 26 27 25 24 23 22 20 18 16 15 15 15 15 13 11 9 9 10 11 11 11 12 13 14 14 13 10 9 8 7 9 10 10 10 9 8 8 8 10 12 13 13 12 11 10
18 20 24 30 34 33 32 31 29 28 30 31 29 27 25 23 21 23 27 28 27 26 24 23 21 19 17 17 16 16 15 13 12 11 9 10 11 12 12 12 12 14 14 13 12 10 8 7 7 7 9 10 8 8 9 10 11 11 12 13 13 13 13
13 16 21 30 35 33 32 31 29 28 30 32 31 29 26 24 22 23 27 29 28 27 25 23 21 20 20 19 18 16 15 14 13 12 10 9 10 13 15 14 14 15 15 14 13 11 9 8 8 8 9 9 9 8 9 10 11 12 12 13 14 14 14
12 14 18 27 34 33 32 30 28 28 31 33 32 29 27 26 24 23 26 28 27 26 25 23 20 19 19 20 20 18 16 15 15 13 10 10 12 14 15 15 14 15 15 14 12 11 10 9 9 9 10 10 9 8 8 9 9 10 11 11 12 13 12
13 12 15 25 32 33 32 31 29 30 33 34 33 30 28 27 25 24 25 26 24 24 24 22 19 16 16 18 21 19 17 17 17 14 11 11 13 14 14 14 15 15 14 13 12 11 10 9 9 10 10 11 11 10 10 9 9 9 9 9 9 10 11
13 12 15 23 30 31 32 32 32 33 33 34 33 31 29 29 26 24 26 26 23 23 23 21 20 16 14 16 19 19 17 18 18 16 15 14 14 14 14 14 15 15 14 13 11 10 9 9 9 9 8 9 10 10 11 11 10 10 10 10 11 11 12
12 13 16 22 28 30 33 34 33 34 34 34 33 31 30 29 28 26 26 26 23 22 21 21 21 18 15 15 18 18 17 18 19 19 18 17 17 16 15 15 15 14 13 12 11 10 9 8 9 8 8 7 8 8 8 9 9 10 11 12 13 14 15
12 15 17 23 28 30 33 35 33 33 35 35 34 34 32 30 28 27 27 26 25 23 22 22 22 20 17 16 17 18 18 18 20 20 19 19 20 18 18 17 16 15 14 14 13 12 10 8 8 8 7 6 6 6 6 7 8 10 12 14 15 17 18
10 15 18 23 28 31 32 34 33 31 33 35 34 34 34 30 28 27 26 26 25 24 23 24 23 22 19 16 17 19 19 18 19 19 19 20 20 20 19 18 16 15 15 14 14 14 12 10 8 8 7 7 7 8 9 10 11 13 15 17 18 20 20
6 13 16 19 26 29 30 31 32 32 33 35 33 31 31 29 27 26 26 26 26 25 25 24 23 22 21 17 17 19 19 19 19 19 20 21 21 21 20 18 16 15 14 13 14 14 12 11 11 11 11 12 13 13 13 14 15 17 18 19 20 21 22
4 5 13 18 23 26 27 27 30 31 32 32 30 28 28 28 28 28 27 27 26 25 25 24 23 21 20 18 17 18 19 19 20 21 22 23 22 19 18 16 15 14 12 11 12 13 12 13 15 15 16 16 17 17 16 17 19 21 21 21 21 20 20
18 12 7 12 20 25 26 25 24 23 24 26 27 28 28 29 29 29 28 27 27 26 25 25 23 20 19 18 17 17 18 19 21 22 22 22 19 13 9 8 8 7 7 9 12 13 13 13 15 16 17 17 17 18 18 19 21 22 23 23 22 20 20
22 22 18 12 13 19 23 24 22 20 21 25 28 29 30 31 31 30 28 26 26 26 25 24 23 20 19 18 16 16 16 16 17 18 16 16 16 12 9 8 8 10 10 10 11 13 13 13 14 16 17 18 19 21 22 22 23 24 24 25 24 22 20
16 18 19 16 14 13 14 16 19 21 23 26 26 24 23 24 25 25 25 24 23 23 22 21 21 20 18 17 15 15 14 13 15 16 14 14 16 16 14 13 15 17 17 15 14 15 15 15 16 17 18 19 20 21 22 22 22 22 22 22 19 16 15
12 14 14 12 11 12 12 11 12 14 16 18 19 16 14 15 16 17 18 17 17 17 17 16 16 15 14 13 12 11 12 13 14 14 13 11 11 12 13 15 17 18 18 17 17 17 17 17 17 17 18 17 17 17 17 17 17 16 16 14 12 11 10
9 10 11 10 8 9 9 7 6 6 7 9 11 11 10 10 11 12 13 13 13 13 13 12 11 11 10 10 10 10 11 11 11 12 11 10 10 11 12 14 15 16 16 16 17 16 16 16 16 15 14 13 12 12 11 11 11 11 11 11 11 11 11
Wind_Direction
218 221 222 224 232 234 225 218 218 217 217 217 214 210 210 211 209 209 212 213 210 209 210 211 209 207 206 203 202 203 203 206 207 213 218 214 208 204 203 212 225 233 257 274 242 231 215 189 187 193 186 189 199 195 193 192 190 194 199 213 231 225 226
218 221 222 224 228 229 224 219 218 216 213 213 211 209 208 208 206 205 206 205 204 204 204 204 205 204 203 203 202 199 200 205 209 212 216 220 220 216 209 211 221 229 243 258 234 232 235 202 193 196 185 186 198 191 186 185 183 191 202 212 226 226 230
220 222 225 227 226 224 222 219 219 216 213 213 211 206 205 204 203 203 202 200 199 200 200 201 201 202 203 205 203 201 203 205 210 213 212 218 225 228 221 216 221 226 234 241 222 220 231 223 211 200 186 187 194 189 186 185 184 190 193 194 194 199 215
225 226 228 228 225 224 222 219 218 216 213 214 212 206 203 201 198 199 198 196 197 198 199 199 200 202 203 205 205 205 207 211 214 214 213 215 223 232 231 225 226 232 243 251 239 230 230 227 222 205 189 190 195 193 187 181 183 186 173 167 169 168 176
232 231 232 231 228 226 223 218 216 214 212 212 210 204 200 196 193 195 196 194 196 197 198 200 202 204 204 204 207 208 210 215 216 216 217 215 218 228 232 231 231 237 252 260 255 254 246 235 233 213 190 186 192 192 185 176 176 172 159 157 160 160 165
237 236 233 233 231 228 223 216 212 212 213 210 205 200 197 194 194 196 197 196 197 196 196 200 201 202 203 204 207 209 212 215 216 217 220 220 220 224 229 233 236 236 246 251 248 255 250 233 231 217 191 183 189 187 180 177 172 164 159 158 159 165 174
241 240 233 229 229 226 222 217 212 212 214 211 207 203 199 197 197 198 198 197 196 195 195 199 200 200 203 205 207 209 212 214 216 217 220 223 224 224 228 234 237 237 238 239 239 247 243 226 225 217 192 179 185 188 181 178 175 168 164 163 163 163 167
241 241 235 228 224 222 221 219 213 214 215 210 209 208 203 201 199 197 198 197 196 197 197 200 201 202 202 203 206 208 211 211 213 216 218 222 224 224 229 233 236 236 233 232 233 238 238 229 228 220 201 184 180 186 187 183 181 179 171 166 166 159 159
243 241 237 230 223 220 221 219 214 214 213 208 208 208 205 203 201 198 199 199 198 199 201 203 203 204 203 203 205 208 210 211 213 216 217 219 220 221 227 232 232 231 231 232 231 233 232 227 227 222 215 210 198 188 188 189 190 186 176 166 166 158 155
244 241 237 230 224 220 217 215 213 211 208 204 205 206 208 207 202 201 201 201 200 200 203 205 204 207 207 206 208 210 213 213 214 217 216 216 217 217 222 228 228 226 229 231 231 231 226 220 224 222 221 228 231 217 199 196 196 190 175 161 157 153 151
237 231 229 225 220 215 211 208 208 207 205 204 203 205 211 210 202 201 202 202 202 200 201 204 204 207 209 209 210 214 217 217 216 216 215 215 217 217 219 222 223 223 224 226 228 229 220 215 223 224 225 229 230 245 253 205 192 183 173 161 151 146 147
230 222 221 219 213 207 204 203 204 206 205 204 204 206 212 211 204 202 202 203 203 201 201 205 205 205 207 209 212 215 217 215 215 216 215 216 217 217 216 216 218 219 218 219 222 221 214 213 224 223 224 229 222 228 291 183 171 167 169 167 155 147 145
226 218 216 215 209 203 202 203 204 205 204 203 204 207 215 215 209 203 201 203 204 202 201 204 205 204 205 208 212 216 215 212 214 216 215 215 215 213 211 211 214 215 215 217 219 220 213 211 220 221 222 225 217 213 213 155 152 148 159 167 174 184 181
222 215 215 213 206 201 201 203 204 206 205 205 205 208 216 219 214 210 206 205 204 203 202 203 204 204 204 205 209 212 211 210 214 215 213 212 213 211 210 210 211 211 214 218 218 218 214 208 209 211 216 216 210 210 222 215 201 181 173 173 181 199 214
217 211 215 213 206 201 200 202 205 208 207 206 205 208 216 219 217 216 211 204 204 203 202 202 203 204 203 204 208 210 209 210 213 214 212 213 214 213 210 208 208 209 212 216 218 214 208 205 203 200 204 208 206 212 226 236 242 238 220 205 192 198 215
213 210 212 211 207 203 202 203 205 206 206 205 204 208 215 216 214 214 210 204 204 204 201 201 202 203 203 204 208 208 207 209 212 214 215 215 215 214 209 204 205 208 210 214 217 214 206 204 202 200 204 209 212 218 227 240 252 255 249 239 226 219 222
219 216 212 208 208 207 205 205 202 201 204 204 204 207 209 209 207 206 206 205 204 201 198 198 199 201 202 203 204 205 204 205 208 212 216 216 215 212 207 202 202 206 211 215 217 216 214 212 205 202 208 215 219 225 233 244 253 258 260 253 243 244 241
230 224 216 209 209 209 206 202 199 199 202 203 205 206 202 203 203 201 201 202 200 195 193 195 196 197 198 197 197 197 196 196 195 197 207 213 214 214 211 206 204 205 212 217 219 218 214 211 204 200 205 213 221 234 243 250 254 257 258 254 249 251 247
240 235 225 215 212 210 204 199 197 199 203 204 203 203 203 203 199 197 197 197 195 191 186 186 186 185 186 185 186 187 187 186 183 185 201 209 212 213 211 208 204 204 211 218 218 211 202 198 199 199 204 212 223 239 249 251 253 253 248 243 245 249 250
242 238 229 219 213 208 202 198 197 200 206 206 202 202 205 202 196 195 196 193 190 187 183 180 180 181 183 184 187 190 189 187 184 189 202 206 211 215 213 209 205 202 203 206 202 196 192 197 200 201 209 218 223 232 240 236 236 237 233 230 234 239 243
241 236 229 220 212 205 201 198 196 201 206 204 202 204 203 198 195 195 193 189 187 187 184 181 181 185 187 189 193 193 189 185 181 186 198 202 209 218 215 211 211 204 193 184 183 187 190 197 202 203 208 213 216 220 223 221 224 229 229 228 232 239 240
241 237 228 219 211 205 202 200 198 203 206 202 200 203 199 196 195 190 187 187 188 188 187 184 185 189 189 189 191 189 186 183 180 186 197 199 200 207 208 208 210 200 180 165 171 183 185 191 200 206 206 204 208 214 213 219 229 233 232 232 235 241 242
246 240 226 216 212 206 203 202 201 204 207 202 197 196 193 190 188 185 185 188 189 189 188 187 188 192 192 190 189 189 189 187 187 193 198 199 199 198 194 191 186 177 164 160 168 176 182 187 185 188 193 193 197 203 204 211 221 227 234 239 240 241 243
262 248 229 216 212 208 204 200 198 203 208 205 196 190 189 185 182 182 185 188 190 190 190 189 190 195 198 195 191 193 196 194 193 197 197 194 191 182 174 168 161 157 158 164 169 172 177 181 176 176 184 186 188 192 197 204 212 220 230 238 243 247 249
273 259 238 218 210 208 202 198 197 200 206 205 195 187 188 186 181 182 184 186 188 189 190 191 191 195 201 200 198 198 201 199 194 193 195 192 184 173 166 164 162 163 167 171 173 176 179 178 179 183 187 190 195 201 205 212 217 220 225 232 240 245 247
276 274 250 223 212 205 200 198 198 198 202 205 195 186 188 188 183 183 185 186 188 187 187 190 190 191 197 202 202 201 201 199 193 189 191 191 187 181 177 179 180 178 179 181 182 186 192 194 193 191 194 198 203 212 220 227 232 232 233 239 245 249 249
265 272 256 226 211 203 198 197 196 196 201 202 194 186 189 189 185 185 187 187 188 185 185 189 190 189 193 194 194 194 195 194 192 190 189 187 187 187 188 192 194 193 191 190 191 195 203 211 210 207 210 211 210 214 223 230 238 244 250 258 265 270 270
238 244 247 228 209 200 197 194 193 197 199 196 190 188 190 191 190 189 189 189 189 186 185 188 188 188 192 191 188 188 190 193 195 196 195 194 194 193 194 197 198 198 198 197 202 209 212 218 222 221 222 223 219 222 230 237 248 256 262 268 271 275 278
231 221 223 217 205 197 195 192 194 199 194 188 188 190 190 192 193 191 190 191 191 189 186 186 187 188 192 196 194 192 191 191 195 197 197 198 199 199 199 200 201 203 205 205 210 213 208 206 215 218 216 221 230 243 262 274 281 281 279 279 279 281 283
229 210 206 205 199 196 196 192 193 196 190 185 189 189 186 190 191 189 191 192 192 191 187 185 188 190 193 197 198 196 195 195 197 198 197 197 198 198 198 198 200 204 205 206 208 207 199 197 207 217 222 235 252 266 279 289 295 296 292 289 287 286 285
219 202 196 194 194 195 195 190 187 190 187 185 187 185 181 184 186 185 187 189 188 189 186 182 185 190 192 195 197 197 200 204 205 203 200 199 198 199 200 199 198 200 201 203 201 199 204 217 229 238 245 254 264 271 277 283 289 292 291 289 287 286 286
39 189 187 181 178 182 187 185 183 184 183 182 184 183 179 181 182 181 182 184 184 185 183 178 179 183 185 187 191 197 203 207 209 204 199 196 191 188 191 194 195 197 199 202 202 204 217 231 238 245 250 254 260 267 274 281 286 287 286 284 282 281 281
58 67 121 160 161 163 170 173 171 175 178 179 181 181 178 178 178 176 177 179 179 179 178 175 172 174 178 178 182 192 197 201 204 199 188 183 181 178 183 196 206 216 216 210 211 217 224 230 236 243 249 253 259 266 272 276 278 280 281 280 279 278 278
68 70 71 81 116 139 152 159 162 174 187 185 179 176 175 176 175 172 172 174 175 175 174 173 172 172 177 181 185 194 197 198 204 206 197 192 202 223 243 247 261 274 267 246 235 235 237 239 241 246 250 255 260 264 268 271 273 275 277 279 280 281 281
76 80 77 70 73 93 119 137 147 158 171 174 170 162 157 158 159 156 157 161 164 166 167 170 173 173 177 185 193 204 214 221 227 233 237 233 234 244 254 259 267 271 265 257 252 252 255 256 258 259 261 264 265 267 270 272 273 275 276 278 280 279 274
89 92 91 85 77 81 91 104 117 128 139 150 157 152 143 145 146 144 149 155 158 162 167 172 178 181 184 191 200 211 225 236 240 242 241 236 234 237 241 247 251 250 247 249 253 258 264 267 269 271 272 272 272 272 273 274 274 273 272 272 275 273 270
89 98 102 106 109 107 107 108 107 104 107 124 139 140 139 149 157 159 163 163 160 165 171 173 181 191 196 203 212 220 224 227 227 226 222 219 220 224 228 233 237 239 243 250 255 259 263 265 267 268 269 270 272 271 270 268 265 264 265 268 273 277 281
Height
1516 1517 1519 1521 1522 1524 1526 1528 1529 1530 1531 1532 1533 1534 1534 1535 1536 1536 1537 1538 1538 1539 1540 1541 1542 1543 1544 1545 1546 1547 1548 1549 1550 1550 1551 1552 1553 1554 1556 1557 1558 1559 1559 1560 1561 1562 1563 1563 1565 1565 1566 1567 1567 1568 1569 1569 1570 1571 1571 1572 1572 1572 1573
1516 1518 1519 1521 1522 1524 1525 1527 1528 1529 1530 1531 1532 1533 1533 1534 1535 1535 1536 1537 1537 1539 1540 1541 1542 1542 1543 1544 1545 1546 1547 1548 1549 1550 1551 1552 1553 1554 1555 1556 1557 1558 1559 1560 1560 1562 1562 1563 1564 1564 1565 1566 1567 1567 1568 1569 1570 1570 1570 1571 1571 1572 1572
1517 1518 1519 1520 1522 1523 1524 1526 1528 1529 1530 1530 1531 1532 1532 1533 1533 1534 1535 1536 1537 1538 1539 1540 1541 1541 1542 1543 1544 1545 1547 1548 1549 1550 1551 1552 1553 1554 1555 1556 1557 1557 1558 1559 1559 1560 1561 1562 1563 1564 1565 1565 1566 1567 1568 1568 1569 1569 1569 1570 1571 1571 1572
1517 1518 1519 1519 1521 1522 1523 1525 1527 1528 1529 1529 1530 1530 1531 1532 1532 1533 1534 1535 1536 1538 1539 1539 1540 1540 1541 1542 1543 1545 1546 1547 1548 1549 1550 1551 1552 1554 1555 1555 1556 1556 1557 1558 1559 1560 1561 1561 1562 1563 1564 1566 1566 1567 1568 1568 1569 1569 1569 1570 1570 1571 1571
1516 1517 1518 1518 1519 1520 1522 1524 1525 1527 1528 1528 1529 1529 1530 1530 1531 1532 1533 1534 1535 1536 1538 1539 1539 1540 1541 1542 1543 1544 1546 1547 1548 1549 1549 1550 1551 1552 1554 1555 1555 1556 1557 1558 1559 1560 1561 1561 1562 1563 1564 1565 1567 1568 1568 1569 1569 1569 1570 1570 1570 1571 1571
1515 1515 1515 1517 1518 1519 1520 1522 1524 1525 1526 1527 1527 1528 1528 1529 1530 1531 1532 1533 1534 1535 1537 1538 1539 1540 1541 1542 1543 1544 1545 1546 1547 1548 1549 1549 1551 1552 1553 1554 1555 1556 1557 1558 1559 1560 1561 1561 1562 1563 1564 1566 1567 1568 1569 1569 1569 1569 1570 1570 1570 1571 1571
1514 1513 1513 1514 1516 1517 1518 1520 1522 1524 1525 1526 1526 1527 1528 1529 1529 1530 1531 1532 1533 1534 1536 1537 1538 1539 1540 1541 1542 1543 1544 1545 1547 1547 1548 1549 1550 1551 1552 1554 1555 1556 1557 1557 1559 1560 1560 1561 1562 1563 1564 1565 1567 1568 1568 1569 1569 1569 1569 1570 1570 1571 1571
1512 1513 1512 1512 1514 1515 1516 1518 1520 1522 1523 1525 1526 1527 1527 1528 1528 1529 1530 1531 1532 1533 1535 1536 1537 1538 1539 1541 1542 1543 1544 1545 1546 1547 1548 1549 1549 1551 1552 1553 1554 1555 1556 1557 1558 1559 1560 1561 1562 1563 1563 1564 1566 1568 1568 1569 1569 1569 1570 1570 1570 1570 1571
1510 1511 1510 1510 1512 1513 1515 1517 1519 1521 1522 1524 1525 1526 1526 1527 1527 1528 1529 1530 1531 1532 1533 1535 1536 1537 1538 1539 1541 1542 1543 1544 1545 1546 1547 1548 1549 1550 1551 1552 1553 1554 1555 1556 1557 1559 1560 1561 1562 1563 1563 1564 1564 1566 1567 1568 1568 1569 1569 1570 1570 1571 1571
1506 1507 1508 1509 1510 1511 1513 1515 1517 1520 1521 1522 1523 1524 1525 1525 1526 1527 1528 1529 1530 1531 1533 1533 1535 1536 1537 1538 1539 1541 1542 1543 1544 1545 1546 1547 1548 1549 1551 1552 1553 1554 1555 1555 1556 1558 1559 1560 1561 1562 1564 1564 1564 1565 1565 1566 1567 1568 1569 1569 1570 1571 1571
1503 1505 1506 1507 1509 1509 1511 1513 1515 1517 1519 1521 1522 1523 1524 1524 1525 1526 1527 1528 1529 1530 1531 1532 1534 1535 1536 1537 1538 1540 1541 1542 1543 1544 1545 1546 1547 1548 1549 1551 1552 1553 1554 1555 1556 1557 1558 1560 1561 1562 1563 1564 1565 1565 1565 1565 1566 1568 1569 1569 1570 1571 1571
1501 1503 1504 1506 1507 1508 1509 1512 1513 1516 1518 1519 1521 1521 1522 1523 1524 1525 1525 1527 1528 1529 1530 1531 1533 1534 1535 1536 1537 1539 1540 1541 1542 1543 1544 1545 1546 1547 1548 1550 1551 1552 1553 1554 1555 1556 1558 1559 1560 1561 1563 1564 1565 1566 1566 1566 1566 1568 1569 1569 1570 1571 1571
1500 1502 1503 1504 1506 1507 1509 1511 1512 1515 1517 1518 1519 1520 1521 1522 1522 1523 1524 1525 1526 1527 1529 1530 1531 1533 1534 1535 1536 1538 1539 1540 1541 1542 1543 1544 1545 1546 1547 1549 1550 1551 1552 1553 1554 1556 1557 1558 1560 1561 1562 1563 1564 1566 1567 1567 1567 1568 1569 1569 1570 1571 1571
1499 1501 1503 1504 1505 1507 1508 1510 1512 1514 1515 1516 1517 1518 1520 1521 1522 1523 1524 1525 1525 1526 1528 1529 1530 1531 1533 1534 1535 1537 1538 1539 1540 1541 1542 1543 1544 1545 1547 1548 1549 1550 1551 1552 1553 1555 1556 1558 1559 1560 1561 1563 1564 1566 1567 1567 1568 1569 1569 1570 1570 1570 1571
1498 1500 1502 1504 1505 1505 1506 1509 1511 1513 1514 1515 1516 1517 1519 1520 1522 1523 1523 1524 1525 1526 1527 1528 1529 1530 1532 1533 1534 1536 1537 1538 1539 1540 1541 1543 1544 1545 1546 1547 1549 1550 1551 1552 1553 1554 1556 1557 1559 1560 1561 1563 1564 1566 1567 1567 1568 1569 1569 1570 1570 1570 1571
1496 1498 1499 1501 1503 1504 1504 1506 1509 1512 1513 1514 1515 1516 1518 1519 1521 1522 1523 1524 1525 1525 1526 1527 1528 1530 1531 1532 1533 1535 1536 1537 1538 1540 1541 1542 1544 1545 1546 1547 1548 1549 1550 1551 1552 1553 1555 1556 1558 1560 1561 1563 1564 1565 1566 1567 1567 1568 1569 1570 1570 1570 1570
1495 1495 1496 1498 1500 1502 1504 1505 1507 1510 1512 1513 1514 1515 1517 1518 1520 1521 1522 1523 1524 1524 1525 1526 1528 1529 1530 1531 1532 1534 1535 1536 1538 1539 1541 1542 1543 1544 1545 1547 1548 1549 1550 1550 1552 1553 1555 1556 1557 1559 1560 1562 1563 1564 1565 1566 1566 1567 1568 1569 1569 1569 1570
1494 1494 1495 1497 1499 1501 1502 1504 1506 1508 1510 1512 1514 1515 1516 1517 1518 1519 1521 1522 1523 1524 1525 1526 1527 1528 1529 1531 1532 1533 1534 1536 1537 1539 1540 1542 1543 1544 1546 1547 1548 1549 1550 1550 1552 1553 1554 1556 1557 1558 1559 1561 1562 1563 1564 1564 1565 1565 1567 1568 1569 1569 1569
1492 1494 1495 1497 1498 1500 1501 1503 1505 1507 1509 1511 1513 1514 1515 1515 1516 1518 1519 1520 1522 1523 1524 1525 1526 1528 1529 1530 1531 1533 1534 1536 1537 1539 1540 1541 1542 1544 1545 1546 1547 1549 1550 1551 1552 1553 1554 1555 1556 1557 1558 1560 1561 1562 1563 1563 1563 1564 1565 1567 1568 1569 1569
1490 1491 1492 1494 1496 1498 1500 1502 1503 1506 1508 1510 1511 1512 1513 1514 1515 1516 1517 1519 1521 1523 1524 1525 1526 1527 1529 1530 1531 1532 1534 1535 1537 1538 1539 1540 1541 1542 1543 1544 1545 1547 1549 1550 1552 1553 1554 1555 1556 1557 1558 1559 1560 1561 1562 1562 1563 1563 1564 1566 1567 1568 1568
1486 1488 1490 1491 1492 1495 1497 1498 1500 1503 1506 1508 1510 1511 1512 1513 1513 1514 1515 1517 1520 1523 1524 1525 1526 1527 1528 1529 1531 1532 1533 1535 1536 1537 1538 1539 1540 1541 1543 1544 1545 1547 1549 1550 1552 1554 1554 1555 1556 1557 1558 1558 1559 1560 1561 1561 1562 1563 1564 1565 1566 1567 1567
1484 1486 1489 1489 1490 1492 1495 1496 1497 1500 1503 1506 1508 1509 1511 1512 1512 1512 1514 1516 1519 1521 1523 1524 1526 1527 1528 1529 1530 1531 1533 1534 1536 1536 1537 1538 1539 1540 1542 1543 1545 1547 1549 1551 1553 1554 1554 1555 1556 1556 1557 1558 1559 1559 1560 1561 1561 1562 1564 1565 1566 1566 1566
1483 1484 1487 1488 1488 1490 1493 1494 1495 1499 1502 1505 1507 1508 1510 1511 1511 1512 1513 1515 1518 1520 1522 1524 1525 1526 1527 1528 1529 1531 1532 1534 1535 1536 1536 1537 1538 1539 1541 1543 1544 1546 1549 1551 1552 1553 1554 1555 1555 1556 1556 1557 1558 1559 1560 1561 1562 1562 1563 1564 1565 1565 1565
1481 1482 1484 1485 1486 1488 1491 1493 1494 1497 1501 1504 1506 1507 1509 1510 1511 1511 1513 1515 1517 1520 1522 1523 1524 1525 1527 1528 1529 1530 1532 1533 1534 1536 1536 1537 1538 1539 1541 1543 1544 1546 1548 1550 1551 1552 1553 1554 1555 1555 1556 1557 1557 1559 1560 1561 1562 1562 1563 1563 1563 1564 1564
1479 1479 1480 1482 1484 1486 1489 1492 1493 1495 1499 1501 1504 1506 1508 1509 1510 1511 1513 1515 1517 1519 1521 1522 1524 1525 1526 1527 1528 1530 1531 1533 1534 1535 1536 1537 1538 1540 1541 1543 1544 1546 1548 1549 1550 1551 1552 1553 1554 1555 1556 1556 1557 1558 1559 1560 1561 1562 1562 1563 1563 1563 1563
1478 1477 1478 1479 1481 1484 1487 1490 1492 1494 1497 1500 1502 1505 1507 1508 1510 1511 1512 1515 1517 1518 1520 1521 1523 1524 1525 1526 1528 1529 1531 1532 1534 1535 1536 1537 1539 1540 1541 1543 1544 1546 1547 1548 1550 1551 1552 1553 1554 1555 1555 1556 1557 1558 1559 1560 1560 1561 1561 1562 1562 1562 1563
1476 1477 1477 1477 1479 1482 1485 1488 1490 1492 1495 1498 1500 1503 1506 1507 1509 1510 1512 1514 1516 1518 1519 1521 1523 1524 1525 1526 1527 1529 1531 1532 1534 1535 1536 1538 1539 1540 1542 1543 1544 1546 1547 1548 1549 1550 1551 1552 1553 1554 1555 1556 1556 1557 1558 1559 1560 1560 1561 1561 1561 1561 1561
1476 1476 1476 1476 1478 1481 1484 1487 1489 1491 1494 1496 1499 1502 1504 1506 1507 1509 1511 1513 1515 1517 1518 1520 1522 1524 1525 1526 1527 1528 1530 1531 1533 1535 1536 1537 1539 1540 1542 1543 1544 1545 1546 1548 1549 1549 1550 1551 1552 1553 1554 1555 1556 1557 1558 1558 1559 1559 1560 1560 1559 1559 1559
1477 1477 1477 1477 1478 1480 1483 1485 1488 1490 1492 1495 1497 1500 1503 1505 1507 1508 1510 1512 1514 1516 1517 1519 1521 1523 1524 1526 1527 1528 1529 1531 1533 1534 1535 1537 1538 1540 1541 1543 1544 1545 1546 1547 1548 1549 1550 1551 1552 1552 1553 1554 1555 1556 1556 1557 1558 1558 1558 1558 1558 1558 1558
1479 1478 1478 1478 1478 1480 1482 1484 1487 1490 1492 1493 1496 1498 1500 1503 1506 1507 1509 1511 1513 1515 1517 1518 1520 1522 1523 1525 1526 1527 1529 1531 1533 1534 1535 1537 1538 1539 1540 1542 1543 1544 1545 1546 1547 1548 1549 1550 1551 1552 1552 1553 1554 1555 1555 1556 1556 1556 1556 1556 1556 1556 1556
1481 1480 1480 1479 1479 1480 1482 1484 1487 1490 1491 1493 1496 1498 1499 1502 1505 1507 1509 1511 1513 1514 1516 1518 1519 1521 1523 1524 1525 1527 1529 1531 1532 1534 1535 1536 1537 1539 1540 1541 1542 1543 1545 1546 1546 1547 1548 1549 1549 1550 1551 1552 1553 1554 1554 1555 1555 1555 1555 1554 1554 1554 1554
1485 1483 1482 1482 1481 1480 1482 1485 1488 1490 1491 1493 1497 1499 1500 1502 1504 1506 1509 1511 1512 1514 1515 1517 1519 1521 1522 1524 1525 1527 1528 1530 1531 1533 1534 1535 1536 1537 1539 1540 1541 1542 1544 1545 1546 1546 1547 1548 1548 1549 1550 1551 1551 1552 1553 1553 1553 1553 1553 1553 1553 1552 1552
1489 1488 1487 1486 1485 1483 1484 1488 1490 1493 1494 1496 1498 1501 1502 1502 1504 1506 1509 1511 1512 1514 1515 1517 1519 1521 1522 1524 1525 1527 1528 1529 1530 1532 1533 1533 1535 1536 1538 1539 1541 1542 1544 1545 1545 1546 1546 1547 1548 1548 1549 1549 1550 1550 1551 1551 1551 1551 1551 1550 1550 1550 1551
1493 1492 1491 1492 1491 1489 1489 1491 1492 1494 1497 1498 1500 1502 1503 1503 1504 1506 1508 1510 1512 1513 1515 1516 1518 1520 1522 1523 1525 1527 1528 1529 1530 1532 1533 1534 1535 1536 1537 1539 1540 1541 1543 1544 1544 1545 1545 1546 1547 1547 1548 1548 1548 1548 1548 1548 1548 1548 1548 1547 1547 1547 1548
1498 1496 1496 1497 1498 1496 1496 1496 1496 1497 1498 1499 1502 1504 1505 1504 1505 1506 1508 1510 1512 1513 1515 1516 1518 1519 1520 1522 1524 1525 1527 1528 1529 1531 1532 1534 1535 1535 1536 1537 1539 1540 1541 1542 1543 1543 1544 1545 1545 1546 1546 1547 1546 1546 1546 1545 1545 1545 1544 1544 1544 1544 1545
1502 1501 1500 1501 1501 1501 1501 1502 1502 1501 1501 1501 1504 1507 1507 1508 1508 1509 1510 1512 1513 1514 1515 1516 1517 1518 1519 1521 1523 1524 1526 1527 1529 1530 1531 1533 1534 1534 1535 1536 1537 1538 1539 1540 1541 1541 1542 1542 1543 1543 1544 1544 1544 1543 1543 1543 1543 1542 1542 1542 1542 1542 1543
1505 1504 1503 1503 1503 1503 1503 1504 1504 1505 1505 1505 1506 1508 1509 1509 1510 1511 1512 1514 1514 1515 1516 1516 1517 1518 1519 1521 1522 1524 1525 1527 1529 1530 1531 1532 1533 1534 1535 1535 1536 1537 1538 1538 1539 1539 1540 1540 1541 1541 1541 1541 1541 1541 1541 1541 1541 1541 1541 1540 1540 1540 1540